Location: Ecklingerode
(51.5036°N, 10.3122°E)
Time: 14:28:41
(UTC+00:00)

Daily predictions for brighter satellites

Satellite Brightness Start Highest point End
(mag) Time Altitude Azimuth Time Altitude Azimuth Time Altitude Azimuth
Cosmos 2219 3.3 16:21:22 10° NNW 16:27:07 64° NE 16:32:49 10° SE
H-2A R/B 3.5 16:25:07 10° S 16:29:32 58° WSW 16:34:01 10° NNW
ATLAS 5 CENTAUR R/B 3.2 16:26:06 10° W 16:29:57 29° NNW 16:34:22 10° NE
Okean-O 3.8 16:26:46 10° ESE 16:30:11 22° ENE 16:33:36 10° N
USA 215 3.6 16:23:54 10° ENE 16:30:17 57° N 16:36:40 10° W
SMAP 3.1 16:26:02 10° SSE 16:30:41 81° ENE 16:35:23 10° NNW
Cosmos 2266 Rocket 4.3 16:24:29 10° NNW 16:30:43 76° W 16:37:02 10° S
Cosmos 1331 Rocket 4.1 16:26:17 10° S 16:31:20 60° ESE 16:36:25 10° NNE
ATLAS 2AS CENTAUR R/B 3.6 16:24:22 10° NW 16:31:33 38° NNE 16:38:16 10° E
FALCON 9 DEB 3.9 16:29:22 10° SW 16:32:21 35° SSE 16:35:20 10° E
Cosmos 2082 4.3 16:28:50 10° NNW 16:34:12 39° NE 16:39:32 10° ESE
FALCON 9 DEB 3.8 16:31:21 10° SW 16:34:20 37° SSE 16:37:19 10° E
CSL-04 DEB 4.3 16:30:29 10° NNE 16:34:25 66° ESE 16:38:19 10° S
Lacrosse 5 2.5 16:30:58 10° W 16:35:51 46° N 16:40:44 10° ENE
Cosmos 2278 Rocket 4.5 16:35:34 10° NNW 16:37:15 11° NNW 16:38:57 10° N
Cosmos 1953 Rocket 3.6 16:33:35 10° N 16:38:00 66° ENE 16:42:26 10° SSE
AQUARIUS 4.2 16:34:27 10° SSE 16:38:57 85° ENE 16:43:29 10° NNW
GEOS 3 Rocket 4.5 16:37:01 10° E 16:41:49 35° NNE 16:46:41 10° NW
Cosmos 968 Rocket 3.7 16:36:46 10° NNW 16:41:52 50° ENE 16:46:54 10° SE
Cosmos 1656 4.4 16:37:03 10° SSE 16:41:56 32° ESE 16:46:53 10° NE
Cosmos 1408 3.9 16:39:56 10° NNE 16:42:44 20° ENE 16:45:32 10° ESE
GENESIS II 4.3 16:39:40 10° SW 16:43:43 83° SE 16:47:47 10° NE
Cosmos 2058 Rocket 3.6 16:43:27 10° SSE 16:47:37 39° E 16:51:51 10° NNE
ERBS 3.5 16:45:01 10° WNW 16:48:03 30° N 16:50:48 12° ENE
NOAA 12 4.3 16:43:37 10° SSE 16:48:55 79° WSW 16:54:17 10° NNW
FALCON 9 DEB 3.6 16:45:50 10° SW 16:48:57 44° SSE 16:51:36 13° E
Feng Yun 1-1 Rocket 4.4 16:43:07 10° SSE 16:48:57 64° ENE 16:54:49 10° NNW
ADEOS Rocket 3.4 16:43:39 10° NNE 16:50:04 81° WNW 16:57:12 10° SSW
CZ-4B R/B 3.7 16:44:51 10° S 16:50:24 67° WSW 16:55:53 10° NNW
Cosmos 1689 Rocket 3.5 16:50:13 10° NE 16:52:23 19° E 16:54:31 10° SE
USA 281 3.6 16:47:46 10° SSE 16:54:17 70° WSW 17:00:53 10° NNW
FALCON 9 DEB 3.1 16:53:31 10° WNW 16:56:58 74° N 16:59:43 15° E
IRS-1C Rocket 4.1 16:52:13 10° SE 16:57:23 59° ENE 17:02:35 10° N
Cosmos 2227 Rocket 2.2 16:52:31 10° NNW 16:58:13 81° ENE 17:03:53 10° SSE
FALCON 9 DEB 3.3 16:55:21 10° SW 16:58:30 52° SSE 17:00:47 17° E
CZ-4C R/B 3.6 16:52:59 10° NW 16:58:42 33° NNE 17:04:26 13° ENE
Cosmos 1892 3.1 16:55:11 10° N 16:58:55 42° ENE 17:02:37 10° SSE
Cosmos 2263 Rocket 3.4 16:55:19 10° NNW 16:59:54 24° NE 17:03:25 14° E
Cosmos 1110 Rocket 4.2 16:56:43 10° SSW 17:01:57 75° WNW 17:07:12 10° NNE
CSL-04 Rocket 4.5 16:57:25 10° ESE 17:02:10 30° ENE 17:06:53 10° N
Cosmos 1939 Rocket 2.8 16:58:38 10° SSE 17:02:29 56° ENE 17:06:19 10° N
Cosmos 1302 Rocket 4.1 16:58:46 10° S 17:03:57 60° ESE 17:09:11 10° NNE
H-2A R/B 2.9 17:00:46 10° N 17:04:48 50° WNW 17:08:46 10° SW
USA 307 3.0 17:01:59 10° WNW 17:06:17 77° SSW 17:10:17 12° ESE
COSMO-SKYMED 1 3.0 17:02:31 10° NNE 17:06:38 40° E 17:10:44 10° SSE
SAR-Lupe-4 3.8 17:04:54 10° NNE 17:08:24 47° E 17:11:52 10° S
USA 308 3.1 17:06:58 10° WNW 17:11:15 73° SSW 17:15:04 13° ESE
Cosmos 1486 Rocket 4.0 17:06:12 10° NNW 17:11:35 83° ENE 17:16:55 10° SSE
Cosmos 1300 2.8 17:07:56 10° SSW 17:11:44 77° W 17:15:35 10° N
CZ-4B R/B 1.2 17:09:12 10° NNE 17:12:27 90° E 17:15:35 10° SSW
Cosmos 1400 Rocket 2.8 17:09:21 10° S 17:13:24 67° E 17:17:28 10° NNE
Cosmos 1825 3.0 17:11:11 10° N 17:14:32 29° ENE 17:17:29 12° SE
Cosmos 1697 Rocket 3.4 17:10:10 10° SSE 17:15:03 32° ESE 17:19:39 11° NE
ERS-2 2.2 17:12:34 10° NNE 17:16:13 79° WNW 17:19:52 10° SSW
Helios 1A Rocket 2.9 17:15:45 10° SSE 17:19:48 61° ENE 17:23:51 10° N
Meteor 2-8 Rocket 4.4 17:15:39 10° S 17:21:43 73° E 17:27:52 10° NNE
Cosmos 1503 Rocket 4.0 17:16:36 10° NNW 17:21:48 63° ENE 17:27:01 10° SE
YAOGAN 1 2.8 17:18:03 10° SE 17:22:12 47° ENE 17:26:22 10° N
BREEZE-M TANK 4.0 17:13:53 10° W 17:22:15 44° SSW 17:24:59 16° SE
S3M 4.2 17:17:11 10° SSE 17:22:59 47° E 17:28:52 10° NNE
CZ-4 R/B 4.3 17:19:03 10° SSE 17:23:12 74° ENE 17:27:23 10° N
Cosmos 1340 3.2 17:22:01 10° NNW 17:25:46 62° W 17:29:30 10° S
SAR-Lupe-1 3.9 17:22:40 10° NNE 17:26:16 71° ESE 17:29:48 10° S
CZ-2D R/B 3.1 17:24:02 10° SSE 17:27:51 77° ENE 17:31:39 10° N
Cosmos 1812 Rocket 4.2 17:24:34 10° SSE 17:28:25 31° E 17:32:16 10° NNE
Meteor 2-1 Rocket 4.4 17:23:42 10° SSE 17:28:53 45° E 17:34:09 10° NNE
Cosmos 44 3.5 17:24:27 10° SW 17:29:00 67° NW 17:33:26 12° NE
Okean O Rocket 3.7 17:25:28 10° SSW 17:29:19 30° W 17:33:10 10° NNW
Cosmos 2228 4.3 17:26:10 10° SW 17:30:13 42° WNW 17:34:20 10° N
CZ-4 R/B 1.2 17:26:49 10° SSE 17:30:39 62° ENE 17:34:27 10° N
SKYMED 3 4.5 17:26:25 10° NNE 17:30:46 68° ESE 17:35:05 10° S
Cosmos 1726 Rocket 4.3 17:26:43 10° SSW 17:31:00 55° WNW 17:35:21 10° N
Cosmos 1417 Rocket 4.5 17:26:58 10° S 17:33:09 67° E 17:39:28 10° NNE
Cosmos 1346 Rocket 2.7 17:29:36 10° N 17:33:38 80° ENE 17:37:37 10° SSE
Cosmos 2058 2.7 17:30:17 10° N 17:34:23 74° ENE 17:38:29 10° SSE
Cosmos 1354 Rocket 3.9 17:29:22 10° NNW 17:34:38 69° ENE 17:39:53 10° SSE
SL-4 R/B 1.7 17:31:21 10° W 17:34:55 74° SSW 17:36:32 31° ESE
Aureole 3 3.0 17:33:36 10° SSW 17:36:36 62° WNW 17:39:36 10° N
Cosmos 2151 3.7 17:33:32 10° N 17:37:18 30° ENE 17:37:31 30° ENE
Cosmos 2297 Rocket 3.2 17:32:10 10° NW 17:37:37 48° WSW 17:43:00 10° S
Cosmos 1980 Rocket 3.0 17:34:07 10° SSE 17:38:44 27° ESE 17:39:22 26° E
PSLV R/B 3.9 17:34:36 10° NNE 17:38:47 66° ESE 17:42:54 10° S
Cosmos 1992 Rocket 4.1 17:35:28 10° S 17:40:29 52° ESE 17:45:23 11° NNE
SJ-11-01 4.4 17:36:05 10° SE 17:40:34 50° ENE 17:45:07 10° N
Timation 1 Rocket 4.3 17:34:52 10° NNW 17:40:54 71° NE 17:46:16 13° SE
Meteor 2-15 Rocket 4.4 17:37:30 10° S 17:43:30 58° E 17:49:31 10° NNE
CZ-2C R/B 3.2 17:38:41 10° SSE 17:44:26 75° ENE 17:49:59 10° NNW
CSL-04 Debris 4.2 17:39:35 10° SSE 17:44:56 61° ENE 17:50:21 10° N
Cosmos 1315 Rocket 2.8 17:43:18 10° S 17:47:11 56° E 17:51:09 10° NNE
CRYOSAT 2 4.4 17:44:14 10° NNE 17:49:01 54° E 17:53:46 10° SSE
Cosmos 1553 Rocket 4.0 17:44:57 10° S 17:51:19 86° W 17:57:36 10° N
Cosmos 220 Rocket 3.9 17:48:40 10° SSW 17:53:00 70° ESE 17:55:51 22° NNE
Ariane Rocket 3.9 17:53:41 29° ENE 17:53:41 29° ENE 17:57:58 10° N
SKYMED 2 3.8 17:50:28 10° N 17:54:49 73° WNW 17:59:09 10° SSW
Meteor 2-15 4.4 17:48:47 10° S 17:54:56 84° E 18:01:06 10° NNE
BREEZE-M R/B 3.8 17:51:20 10° W 17:55:16 65° S 17:59:00 27° ESE
USA 305 3.9 17:51:50 10° WNW 17:55:55 43° SW 17:58:11 23° SSE
Meteor 2-10 Rocket 3.4 17:51:50 10° S 17:57:06 82° E 18:02:12 10° NNE
Cosmos 1455 2.0 17:55:15 10° S 17:59:01 77° E 18:02:52 10° NNE
TRACE 4.5 17:56:07 13° NNE 17:59:21 74° ESE 18:03:06 10° S
NOSS 3-4 (A) 3.7 17:54:42 10° NW 18:01:31 73° NE 18:05:39 29° ESE
NOSS 3-4 (C) 3.7 17:54:48 10° NW 18:01:37 73° NE 18:05:43 29° ESE
Cosmos 2360 4.3 17:56:14 10° S 18:01:47 54° ESE 18:04:36 28° NE
SeaSat 1 2.6 18:00:38 40° E 18:02:01 54° NE 18:06:50 10° NNW
USA 306 4.0 17:58:22 10° WNW 18:02:24 39° SW 18:04:25 24° SSE
H-2A R/B 2.1 17:59:26 10° SSE 18:04:52 79° ENE 18:10:21 10° NNW
Okean-O 3.3 18:01:58 10° S 18:06:20 56° W 18:10:43 10° NNW
MOS 1 Rocket 3.3 18:02:41 10° NNE 18:07:19 58° E 18:12:14 10° S
FALCON 9 DEB 3.2 18:05:04 10° W 18:07:57 66° WNW 18:07:57 66° WNW
FALCON 9 DEB 3.4 18:07:02 10° W 18:09:47 60° WNW 18:09:47 60° WNW
Cosmos 2278 3.8 18:06:38 10° S 18:12:03 48° ESE 18:12:45 46° E
USA 215 3.4 18:10:10 36° E 18:12:54 63° NNE 18:19:22 10° WNW
NOSS 3-3 (A) 3.9 18:07:06 10° SSW 18:12:58 71° SE 18:16:10 32° NE
NOSS 3-3 (C) 3.9 18:07:14 10° SSW 18:13:05 70° SE 18:16:14 32° NE
Cosmos 1745 Rocket 4.5 18:08:25 10° NNW 18:14:38 63° W 18:20:52 10° S
ATLAS 5 CENTAUR R/B 3.6 18:12:20 10° NW 18:16:06 22° N 18:17:34 20° NNE
Cosmos 1408 4.1 18:14:29 10° NNW 18:17:53 37° W 18:21:17 10° SSW
COSMOS 2455 4.2 18:13:59 10° NNW 18:18:42 23° NNE 18:19:43 22° NE
Meteor 2-3 Rocket 3.8 18:13:11 10° N 18:18:48 54° ENE 18:19:36 50° E
GEOS 3 Rocket 3.6 18:17:20 38° SE 18:19:30 84° SW 18:24:57 10° NW
Lacrosse 5 2.1 18:14:30 10° WNW 18:19:30 55° NNE 18:20:11 50° NE
Cosmos 44 Rocket 3.4 18:15:47 10° SSW 18:19:58 52° SSE 18:19:58 52° SSE
ARGOS 3.0 18:17:21 24° SSE 18:20:43 81° ENE 18:26:12 10° NNW
Cosmos 1689 Rocket 4.3 18:21:51 15° NNW 18:23:33 25° WNW 18:25:59 10° SW
ATLAS 2AS CENTAUR R/B 2.8 18:15:59 10° NW 18:23:39 77° NE 18:26:16 43° ESE
Cosmos 2278 Rocket 4.3 18:21:55 10° N 18:24:10 12° NNE 18:24:58 12° NNE
ERBS 3.7 18:21:32 10° NW 18:23:42 33° NNW 18:23:42 33° NNW
FALCON 9 DEB 4.3 18:21:45 10° W 18:24:00 40° W 18:24:00 40° W
Cosmos 1656 4.3 18:19:52 10° SW 18:25:21 54° NW 18:30:38 11° NNE
SL-08 RB Rocket 3.9 18:26:12 54° NNE 18:26:12 54° NNE 18:29:56 10° N
Cosmos 1844 Rocket 4.0 18:27:37 10° NNW 18:31:40 26° NNE 18:31:40 26° NNE
SJ 16-02 3.2 18:32:03 10° N 18:33:43 20° N 18:33:43 20° N
Cosmos 2369 3.7 18:30:46 10° SSW 18:36:30 84° WNW 18:39:11 33° NNE
Cosmos 1777 Rocket 3.9 18:32:43 10° NNW 18:37:58 87° WSW 18:38:35 70° SSE
Cosmos 2184 Rocket 4.1 18:34:38 10° N 18:40:25 54° ENE 18:40:25 54° ENE
CSL-04 Rocket 4.3 18:36:48 10° S 18:42:14 56° W 18:47:40 10° NNW
Meteor 2-17 Rocket 4.2 18:37:53 10° N 18:43:58 75° ENE 18:44:33 69° ESE
Cosmos 1709 Rocket 4.4 18:37:51 10° NNW 18:44:09 65° W 18:50:27 10° S
Cosmos 2263 Rocket 2.0 18:38:55 10° NNW 18:44:40 87° ENE 18:45:08 76° SE
CZ-4C R/B 2.9 18:41:39 10° NW 18:48:27 65° NE 18:49:38 58° E
Cosmos 1825 4.3 18:46:45 10° NNW 18:49:58 27° W 18:52:23 15° SW
Cosmos 2074 Rocket 4.0 18:52:32 10° N 18:58:05 66° NNE 18:58:05 66° NNE
Cosmos 1697 Rocket 3.3 18:53:17 10° SW 18:58:47 54° NW 19:01:26 30° N
CZ-4 R/B 4.3 19:03:55 10° WSW 19:06:04 14° W 19:08:14 10° NW
Resurs 01 Rocket 4.3 19:11:38 11° N 19:11:38 11° N 19:11:47 10° N
Cosmos 2315 Rocket 4.4 19:06:01 10° SSW 19:12:08 61° WNW 19:18:17 10° N
Cosmos 1980 Rocket 2.8 19:16:47 10° SW 19:21:13 51° WSW 19:21:13 51° WSW
Ariane Rocket 4.3 19:33:54 38° NW 19:33:54 38° NW 19:37:19 10° NNW
SeaSat 1 4.1 19:40:26 29° W 19:40:26 29° W 19:44:07 10° NW
USA 215 3.8 19:57:31 53° W 19:57:31 53° W 20:02:28 10° WNW
ATLAS 5 CENTAUR R/B 4.2 19:57:19 10° NW 19:59:05 20° NNW 19:59:05 20° NNW
Lacrosse 5 4.1 19:57:37 10° WNW 19:59:23 22° WNW 19:59:23 22° WNW
COSMOS 2455 4.5 19:59:58 10° NNW 20:02:51 28° NNW 20:02:51 28° NNW
Cosmos 2278 Rocket 4.5 20:05:21 10° NNW 20:06:48 17° N 20:06:48 17° N
ATLAS 2AS CENTAUR R/B 4.0 20:07:36 10° NW 20:13:44 33° WSW 20:13:44 33° WSW
CZ-4C R/B 4.0 20:30:16 10° NW 20:34:49 37° W 20:34:49 37° W
